Le nostre stazioni meteo in Italia

Pubblicità
Il mio iltempo24.it
S. Giovanni Teatino, Italia (16231): Temperatura & dewpoint: 13.03.2019 19:00:00 - 19.03.2019 19:00:00 (CET)S. Giovanni Teatino, Italia (16231): velocità del vento: 13.03.2019 19:00:00 - 19.03.2019 19:00:00 (CET)S. Giovanni Teatino, Italia (16231): direzione del vento: 13.03.2019 19:00:00 - 19.03.2019 19:00:00 (CET)S. Giovanni Teatino, Italia (16231): reduced air pressure: 13.03.2019 19:00:00 - 19.03.2019 19:00:00 (CET)
Data & Tempo tt [°C] td [°C] ff [km/h] ff [kn] dd ppp [hPa]
19.03.2019 19:00:00 - - - - - -
19.03.2019 18:00:00 8,7 6,6 18 10 O 1020,9
19.03.2019 17:00:00 8,9 7,3 15 8 O 1020,0
19.03.2019 16:00:00 9,3 7,7 15 8 O 1019,6
19.03.2019 15:00:00 9,6 7,3 16 9 ONO 1019,3
19.03.2019 14:00:00 10,0 7,2 15 8 ONO 1019,0
19.03.2019 13:00:00 10,6 7,1 21 11 ONO 1018,9
19.03.2019 12:00:00 11,9 8,0 16 9 NO 1018,5
19.03.2019 11:00:00 11,9 8,1 16 9 ONO 1018,2
19.03.2019 10:00:00 10,8 8,3 15 8 NO 1018,1
19.03.2019 09:00:00 9,9 8,0 9 5 O 1018,0
19.03.2019 08:00:00 8,9 7,5 5 3 O 1017,8
19.03.2019 07:00:00 8,4 7,0 8 4 O 1017,3
19.03.2019 06:00:00 8,3 6,9 8 4 OSO 1016,6
19.03.2019 05:00:00 8,4 7,2 8 4 O 1016,3
19.03.2019 04:00:00 8,5 7,1 5 3 O 1015,8
19.03.2019 03:00:00 8,3 7,1 5 3 O 1015,8
19.03.2019 02:00:00 8,7 7,5 11 6 O 1016,0
19.03.2019 01:00:00 9,0 7,8 11 6 O 1016,0
19.03.2019 00:00:00 8,8 7,7 9 5 O 1016,0
18.03.2019 23:00:00 9,1 7,7 9 5 O 1015,9
18.03.2019 22:00:00 9,7 8,4 15 8 O 1015,7
18.03.2019 21:00:00 9,9 8,6 15 8 O 1015,4
18.03.2019 20:00:00 10,5 9,7 9 5 O 1014,9
18.03.2019 19:00:00 10,3 9,2 13 7 O 1014,5
18.03.2019 18:00:00 11,3 10,5 16 9 O 1013,7
18.03.2019 17:00:00 13,4 10,2 5 3 O 1012,6
18.03.2019 16:00:00 15,6 10,1 4 2 N 1012,0
18.03.2019 15:00:00 15,7 10,6 9 5 NNO 1011,8
18.03.2019 14:00:00 15,7 10,6 5 3 ONO 1011,9
18.03.2019 13:00:00 15,1 12,9 4 2 ONO 1012,4
18.03.2019 12:00:00 12,5 11,5 8 4 NO 1012,6
18.03.2019 11:00:00 13,9 11,7 4 2 NNO 1012,3
18.03.2019 10:00:00 13,5 12,8 2 1 ONO 1011,7
18.03.2019 09:00:00 12,4 12,4 4 2 SO 1011,7
18.03.2019 08:00:00 9,3 9,3 4 2 SSE 1011,8
18.03.2019 07:00:00 8,6 8,6 2 1 SSE 1011,7
18.03.2019 06:00:00 8,6 8,6 8 4 ONO 1011,6
18.03.2019 05:00:00 8,9 8,4 5 3 N 1011,3
18.03.2019 04:00:00 11,4 10,1 2 1 SE 1010,4
18.03.2019 03:00:00 10,8 10,3 4 2 SE 1010,5
18.03.2019 02:00:00 10,3 10,0 2 1 SO 1011,4
18.03.2019 01:00:00 10,8 10,5 9 5 OSO 1011,6
18.03.2019 00:00:00 - - - - - -
17.03.2019 23:00:00 10,0 9,4 11 6 SO 1012,5
17.03.2019 22:00:00 10,7 9,3 4 2 OSO 1012,8
17.03.2019 21:00:00 11,9 9,3 4 2 SO 1012,8
17.03.2019 20:00:00 11,6 9,1 9 5 E 1012,9
17.03.2019 19:00:00 11,8 10,5 13 7 E 1012,9
17.03.2019 18:00:00 12,7 11,4 18 10 ENE 1012,8
17.03.2019 17:00:00 14,0 11,8 15 8 ENE 1012,9
17.03.2019 16:00:00 14,7 11,4 13 7 ENE 1013,4
17.03.2019 15:00:00 15,3 12,8 13 7 NE 1013,8
17.03.2019 14:00:00 16,2 11,7 11 6 N 1014,3
17.03.2019 13:00:00 16,2 11,3 8 4 NO 1015,0
17.03.2019 12:00:00 16,0 11,9 13 7 NO 1015,9
17.03.2019 11:00:00 15,9 13,7 9 5 NO 1016,5
17.03.2019 10:00:00 13,9 11,7 8 4 O 1016,7
17.03.2019 09:00:00 12,4 10,6 5 3 OSO 1016,7
17.03.2019 08:00:00 10,0 6,3 5 3 OSO 1016,7
17.03.2019 07:00:00 10,1 6,6 8 4 OSO 1016,3
17.03.2019 06:00:00 9,7 6,9 9 5 SO 1016,3
17.03.2019 05:00:00 10,0 7,9 9 5 OSO 1016,3
17.03.2019 04:00:00 10,6 9,0 5 3 O 1015,9
17.03.2019 03:00:00 11,9 6,8 5 3 OSO 1015,8
17.03.2019 02:00:00 11,3 9,5 9 5 SO 1016,3
17.03.2019 01:00:00 9,9 9,1 8 4 OSO 1016,8
17.03.2019 00:00:00 10,8 10,8 11 6 O 1016,8
16.03.2019 23:00:00 11,5 9,4 9 5 OSO 1016,6
16.03.2019 22:00:00 14,4 8,7 5 3 S 1016,3
16.03.2019 21:00:00 12,7 10,4 2 1 S 1016,5
16.03.2019 20:00:00 13,1 11,8 2 1 SE 1016,4
16.03.2019 19:00:00 13,0 11,7 0 0 N 1016,4
16.03.2019 18:00:00 14,3 11,6 5 3 NE 1015,4
16.03.2019 17:00:00 15,0 10,2 9 5 ENE 1014,9
16.03.2019 16:00:00 16,0 8,2 13 7 ENE 1014,6
16.03.2019 15:00:00 17,8 7,2 18 10 ENE 1014,2
16.03.2019 14:00:00 19,3 8,6 8 4 NE 1014,3
16.03.2019 13:00:00 17,8 8,6 5 3 NNO 1015,0
16.03.2019 12:00:00 18,5 9,5 4 2 NNO 1015,1
16.03.2019 11:00:00 20,5 7,1 4 2 ONO 1014,8
16.03.2019 10:00:00 18,2 5,7 5 3 O 1014,8
16.03.2019 09:00:00 16,1 5,0 4 2 OSO 1014,6
16.03.2019 08:00:00 13,8 3,2 15 8 OSO 1014,0
16.03.2019 07:00:00 15,6 2,3 15 8 SSO 1013,1
16.03.2019 06:00:00 15,5 2,2 9 5 SSO 1012,9
16.03.2019 05:00:00 15,8 2,5 29 16 SSO 1012,4
16.03.2019 04:00:00 15,5 3,2 21 11 SSO 1012,7
16.03.2019 03:00:00 15,9 3,2 34 18 SSO 1012,7
16.03.2019 02:00:00 15,9 3,6 24 13 SSO 1013,6
16.03.2019 01:00:00 15,8 4,4 21 11 SSO 1013,7
16.03.2019 00:00:00 - - - - - -
15.03.2019 23:00:00 13,7 4,7 11 6 SSO 1013,6
15.03.2019 22:00:00 13,7 3,9 13 7 SE 1013,5
15.03.2019 21:00:00 13,3 3,0 16 9 ESE 1013,7
15.03.2019 20:00:00 13,5 3,5 16 9 ESE 1013,4
15.03.2019 19:00:00 13,5 3,7 15 8 E 1013,2
15.03.2019 18:00:00 14,1 4,0 15 8 E 1012,7
15.03.2019 17:00:00 15,1 4,1 18 10 E 1012,1
15.03.2019 16:00:00 15,9 4,5 16 9 ENE 1011,9
15.03.2019 15:00:00 16,5 5,1 15 8 ENE 1011,7
15.03.2019 14:00:00 17,1 4,7 16 9 NE 1011,6
15.03.2019 13:00:00 18,1 5,6 9 5 NE 1012,1
15.03.2019 12:00:00 18,5 5,3 8 4 ONO 1012,3
15.03.2019 11:00:00 16,9 4,5 4 2 OSO 1012,0
15.03.2019 10:00:00 15,5 6,2 16 9 S 1011,8
15.03.2019 09:00:00 13,2 4,5 13 7 SSO 1011,6
15.03.2019 08:00:00 11,3 2,8 15 8 NNE 1011,2
15.03.2019 07:00:00 10,0 1,8 15 8 SSE 1011,0
15.03.2019 06:00:00 10,1 1,1 22 12 SSO 1010,4
15.03.2019 05:00:00 10,5 1,5 16 9 SSO 1009,5
15.03.2019 04:00:00 10,6 2,1 8 4 SSO 1009,5
15.03.2019 03:00:00 10,9 2,9 21 11 S 1009,2
15.03.2019 02:00:00 10,9 2,9 16 9 SSO 1009,5
15.03.2019 01:00:00 11,4 2,8 15 8 SSO 1009,5
15.03.2019 00:00:00 11,9 0,5 9 5 S 1009,3
14.03.2019 23:00:00 11,1 0,4 11 6 SSO 1010,2
14.03.2019 22:00:00 10,4 0,6 4 2 SE 1010,7
14.03.2019 21:00:00 9,4 1,7 13 7 SSE 1011,0
14.03.2019 20:00:00 9,4 2,6 9 5 ESE 1011,2
14.03.2019 19:00:00 9,3 5,4 5 3 ESE 1011,9
14.03.2019 18:00:00 10,0 7,2 2 1 SE 1012,7
14.03.2019 17:00:00 10,5 6,0 4 2 NE 1012,5
14.03.2019 16:00:00 11,8 7,1 2 1 O 1013,0
14.03.2019 15:00:00 11,8 7,7 8 4 ONO 1013,2
14.03.2019 14:00:00 11,2 7,5 9 5 ONO 1013,6
14.03.2019 13:00:00 10,9 9,0 9 5 ONO 1014,4
14.03.2019 12:00:00 8,9 8,3 18 10 O 1014,6
14.03.2019 11:00:00 6,9 6,5 11 6 O 1014,8
14.03.2019 10:00:00 7,0 6,4 18 10 O 1014,5
14.03.2019 09:00:00 - - - - - -
14.03.2019 08:00:00 6,4 6,3 21 11 O 1013,2
14.03.2019 07:00:00 6,5 6,4 16 9 O 1012,7
14.03.2019 06:00:00 6,3 6,3 5 3 SSO 1012,4
14.03.2019 05:00:00 6,2 6,1 9 5 OSO 1012,1
14.03.2019 04:00:00 6,7 6,1 15 8 O 1011,8
14.03.2019 03:00:00 7,2 6,4 13 7 O 1012,0
14.03.2019 02:00:00 7,2 6,4 15 8 O 1012,0
14.03.2019 01:00:00 7,6 6,7 15 8 OSO 1011,4
14.03.2019 00:00:00 8,4 7,2 13 7 O 1011,5
13.03.2019 23:00:00 8,5 6,6 11 6 OSO 1011,3
13.03.2019 22:00:00 9,2 5,5 11 6 O 1010,9
13.03.2019 21:00:00 10,4 1,7 8 4 O 1010,0
13.03.2019 20:00:00 11,1 1,2 8 4 S 1010,1
13.03.2019 19:00:00 11,1 1,0 13 7 E 1010,1

tt = Temperatura
td = dewpoint
ff = velocità del vento
dd = direzione del vento
ppp = reduced air pressure

Stazioni seguenti

WeatherPro
AMSI
MeteoEarth